Data supplied by UK-AIR on 5/4/2008
All Data GMT hour ending 
Status: R =Ratified P=Provisional,P*=As supplied
,,Bury Roadside,,,,,,,,,,,,,,,,,,,,,,,
Date,time,"Carbon monoxide",status,unit,"PM10 particulate matter (Hourly measured)",status,unit,"Nitric oxide",status,unit,"Nitrogen dioxide",status,unit,"Nitrogen oxides as nitrogen dioxide",status,unit,"Ozone",status,unit,"Sulphur dioxide",status,unit
 
01-01-1999,01:00,0.2,R,mgm-3,16,R,ugm-3 (GRAV EQ),9,R,ugm-3,27,R,ugm-3,40,R,ugm-3,36,R,ugm-3,11,R,ugm-3
01-01-1999,02:00,0.2,R,mgm-3,13,R,ugm-3 (GRAV EQ),16,R,ugm-3,34,R,ugm-3,59,R,ugm-3,34,R,ugm-3,21,R,ugm-3
01-01-1999,03:00,0.2,R,mgm-3,14,R,ugm-3 (GRAV EQ),13,R,ugm-3,31,R,ugm-3,50,R,ugm-3,38,R,ugm-3,29,R,ugm-3
01-01-1999,04:00,0.2,R,mgm-3,18,R,ugm-3 (GRAV EQ),10,R,ugm-3,27,R,ugm-3,42,R,ugm-3,36,R,ugm-3,32,R,ugm-3
01-01-1999,05:00,0.2,R,mgm-3,14,R,ugm-3 (GRAV EQ),11,R,ugm-3,29,R,ugm-3,46,R,ugm-3,34,R,ugm-3,29,R,ugm-3
01-01-1999,06:00,0.1,R,mgm-3,13,R,ugm-3 (GRAV EQ),10,R,ugm-3,27,R,ugm-3,42,R,ugm-3,40,R,ugm-3,11,R,ugm-3
01-01-1999,07:00,0.1,R,mgm-3,10,R,ugm-3 (GRAV EQ),11,R,ugm-3,31,R,ugm-3,48,R,ugm-3,42,R,ugm-3,8,R,ugm-3
01-01-1999,08:00,0.1,R,mgm-3,10,R,ugm-3 (GRAV EQ),14,R,ugm-3,32,R,ugm-3,53,R,ugm-3,40,R,ugm-3,8,R,ugm-3
01-01-1999,09:00,0.2,R,mgm-3,5,R,ugm-3 (GRAV EQ),14,R,ugm-3,32,R,ugm-3,53,R,ugm-3,44,R,ugm-3,8,R,ugm-3
01-01-1999,10:00,0.2,R,mgm-3,7,R,ugm-3 (GRAV EQ),19,R,ugm-3,36,R,ugm-3,65,R,ugm-3,42,R,ugm-3,8,R,ugm-3
01-01-1999,11:00,0.2,R,mgm-3,10,R,ugm-3 (GRAV EQ),36,R,ugm-3,42,R,ugm-3,97,R,ugm-3,38,R,ugm-3,13,R,ugm-3
01-01-1999,12:00,0.2,R,mgm-3,22,R,ugm-3 (GRAV EQ),41,R,ugm-3,48,R,ugm-3,111,R,ugm-3,36,R,ugm-3,13,R,ugm-3
01-01-1999,13:00,0.5,R,mgm-3,26,R,ugm-3 (GRAV EQ),55,R,ugm-3,55,R,ugm-3,139,R,ugm-3,30,R,ugm-3,13,R,ugm-3
01-01-1999,14:00,0.3,R,mgm-3,16,R,ugm-3 (GRAV EQ),46,R,ugm-3,53,R,ugm-3,124,R,ugm-3,30,R,ugm-3,13,R,ugm-3
01-01-1999,15:00,0.5,R,mgm-3,21,R,ugm-3 (GRAV EQ),53,R,ugm-3,55,R,ugm-3,136,R,ugm-3,30,R,ugm-3,13,R,ugm-3
01-01-1999,16:00,0.5,R,mgm-3,20,R,ugm-3 (GRAV EQ),59,R,ugm-3,59,R,ugm-3,149,R,ugm-3,26,R,ugm-3,16,R,ugm-3
01-01-1999,17:00,0.5,R,mgm-3,17,R,ugm-3 (GRAV EQ),58,R,ugm-3,61,R,ugm-3,149,R,ugm-3,24,R,ugm-3,13,R,ugm-3
01-01-1999,18:00,0.3,R,mgm-3,12,R,ugm-3 (GRAV EQ),46,R,ugm-3,55,R,ugm-3,126,R,ugm-3,28,R,ugm-3,13,R,ugm-3
01-01-1999,19:00,0.2,R,mgm-3,10,R,ugm-3 (GRAV EQ),39,R,ugm-3,50,R,ugm-3,109,R,ugm-3,32,R,ugm-3,11,R,ugm-3
01-01-1999,20:00,0.2,R,mgm-3,12,R,ugm-3 (GRAV EQ),35,R,ugm-3,48,R,ugm-3,101,R,ugm-3,36,R,ugm-3,11,R,ugm-3
01-01-1999,21:00,0.2,R,mgm-3,18,R,ugm-3 (GRAV EQ),33,R,ugm-3,48,R,ugm-3,97,R,ugm-3,36,R,ugm-3,11,R,ugm-3
01-01-1999,22:00,0.2,R,mgm-3,10,R,ugm-3 (GRAV EQ),23,R,ugm-3,34,R,ugm-3,69,R,ugm-3,44,R,ugm-3,8,R,ugm-3
01-01-1999,23:00,0.2,R,mgm-3,10,R,ugm-3 (GRAV EQ),19,R,ugm-3,31,R,ugm-3,59,R,ugm-3,46,R,ugm-3,5,R,ugm-3
01-01-1999,24:00,0.1,R,mgm-3,5,R,ugm-3 (GRAV EQ),11,R,ugm-3,23,R,ugm-3,40,R,ugm-3,52,R,ugm-3,8,R,ugm-3
02-01-1999,01:00,0.1,R,mgm-3,7,R,ugm-3 (GRAV EQ),13,R,ugm-3,17,R,ugm-3,36,R,ugm-3,54,R,ugm-3,11,R,ugm-3
02-01-1999,02:00,0.1,R,mgm-3,4,R,ugm-3 (GRAV EQ),10,R,ugm-3,15,R,ugm-3,31,R,ugm-3,60,R,ugm-3,5,R,ugm-3
02-01-1999,03:00,0.1,R,mgm-3,3,R,ugm-3 (GRAV EQ),10,R,ugm-3,15,R,ugm-3,31,R,ugm-3,58,R,ugm-3,3,R,ugm-3
02-01-1999,04:00,0.1,R,mgm-3,3,R,ugm-3 (GRAV EQ),9,R,ugm-3,13,R,ugm-3,27,R,ugm-3,60,R,ugm-3,3,R,ugm-3
02-01-1999,05:00,0.1,R,mgm-3,7,R,ugm-3 (GRAV EQ),15,R,ugm-3,21,R,ugm-3,44,R,ugm-3,54,R,ugm-3,3,R,ugm-3
02-01-1999,06:00,0.1,R,mgm-3,10,R,ugm-3 (GRAV EQ),21,R,ugm-3,34,R,ugm-3,67,R,ugm-3,46,R,ugm-3,5,R,ugm-3
02-01-1999,07:00,0.1,R,mgm-3,13,R,ugm-3 (GRAV EQ),25,R,ugm-3,38,R,ugm-3,76,R,ugm-3,40,R,ugm-3,11,R,ugm-3
02-01-1999,08:00,0.1,R,mgm-3,14,R,ugm-3 (GRAV EQ),28,R,ugm-3,38,R,ugm-3,80,R,ugm-3,38,R,ugm-3,5,R,ugm-3
02-01-1999,09:00,0.2,R,mgm-3,18,R,ugm-3 (GRAV EQ),35,R,ugm-3,44,R,ugm-3,97,R,ugm-3,34,R,ugm-3,8,R,ugm-3
02-01-1999,10:00,0.2,R,mgm-3,20,R,ugm-3 (GRAV EQ),46,R,ugm-3,52,R,ugm-3,122,R,ugm-3,30,R,ugm-3,11,R,ugm-3
02-01-1999,11:00,0.3,R,mgm-3,17,R,ugm-3 (GRAV EQ),49,R,ugm-3,55,R,ugm-3,130,R,ugm-3,32,R,ugm-3,13,R,ugm-3
02-01-1999,12:00,0.3,R,mgm-3,17,R,ugm-3 (GRAV EQ),61,R,ugm-3,59,R,ugm-3,153,R,ugm-3,30,R,ugm-3,16,R,ugm-3
02-01-1999,13:00,0.5,R,mgm-3,21,R,ugm-3 (GRAV EQ),66,R,ugm-3,63,R,ugm-3,164,R,ugm-3,28,R,ugm-3,19,R,ugm-3
02-01-1999,14:00,0.6,R,mgm-3,25,R,ugm-3 (GRAV EQ),75,R,ugm-3,69,R,ugm-3,183,R,ugm-3,24,R,ugm-3,19,R,ugm-3
02-01-1999,15:00,0.5,R,mgm-3,25,R,ugm-3 (GRAV EQ),61,R,ugm-3,65,R,ugm-3,159,R,ugm-3,30,R,ugm-3,19,R,ugm-3
02-01-1999,16:00,0.6,R,mgm-3,23,R,ugm-3 (GRAV EQ),66,R,ugm-3,67,R,ugm-3,168,R,ugm-3,24,R,ugm-3,21,R,ugm-3
02-01-1999,17:00,0.6,R,mgm-3,31,R,ugm-3 (GRAV EQ),73,R,ugm-3,69,R,ugm-3,180,R,ugm-3,22,R,ugm-3,13,R,ugm-3
02-01-1999,18:00,0.9,R,mgm-3,31,R,ugm-3 (GRAV EQ),88,R,ugm-3,76,R,ugm-3,210,R,ugm-3,14,R,ugm-3,21,R,ugm-3
02-01-1999,19:00,0.6,R,mgm-3,25,R,ugm-3 (GRAV EQ),60,R,ugm-3,69,R,ugm-3,160,R,ugm-3,20,R,ugm-3,13,R,ugm-3
02-01-1999,20:00,0.5,R,mgm-3,25,R,ugm-3 (GRAV EQ),48,R,ugm-3,61,R,ugm-3,134,R,ugm-3,22,R,ugm-3,13,R,ugm-3
02-01-1999,21:00,0.3,R,mgm-3,23,R,ugm-3 (GRAV EQ),30,R,ugm-3,50,R,ugm-3,96,R,ugm-3,30,R,ugm-3,13,R,ugm-3
02-01-1999,22:00,0.2,R,mgm-3,20,R,ugm-3 (GRAV EQ),26,R,ugm-3,42,R,ugm-3,82,R,ugm-3,32,R,ugm-3,13,R,ugm-3
02-01-1999,23:00,0.2,R,mgm-3,18,R,ugm-3 (GRAV EQ),21,R,ugm-3,36,R,ugm-3,69,R,ugm-3,34,R,ugm-3,11,R,ugm-3
02-01-1999,24:00,0.2,R,mgm-3,16,R,ugm-3 (GRAV EQ),28,R,ugm-3,42,R,ugm-3,84,R,ugm-3,28,R,ugm-3,8,R,ugm-3
03-01-1999,01:00,0.3,R,mgm-3,23,R,ugm-3 (GRAV EQ),,,,,,,,,,12,R,ugm-3,13,R,ugm-3
03-01-1999,02:00,,,,,,,,,,,,,,,,,,,,,
03-01-1999,03:00,,,,,,,,,,,,,,,,,,,,,
03-01-1999,04:00,,,,,,,,,,,,,,,,,,,,,
03-01-1999,05:00,,,,,,,,,,,,,,,,,,,,,
03-01-1999,06:00,,,,,,,,,,,,,,,,,,,,,
03-01-1999,07:00,,,,,,,,,,,,,,,,,,,,,
03-01-1999,08:00,,,,,,,,,,,,,,,,,,,,,
03-01-1999,09:00,,,,,,,,,,,,,,,,,,,,,
03-01-1999,10:00,,,,,,,,,,,,,,,,,,,,,
03-01-1999,11:00,,,,,,,,,,,,,,,,,,,,,
03-01-1999,12:00,,,,,,,,,,,,,,,,,,,,,
03-01-1999,13:00,,,,,,,,,,,,,,,,,,,,,
03-01-1999,14:00,,,,,,,,,,,,,,,,,,,,,
03-01-1999,15:00,,,,,,,,,,,,,,,,,,,,,
03-01-1999,16:00,,,,,,,,,,,,,,,,,,,,,
03-01-1999,17:00,,,,,,,,,,,,,,,,,,,,,
03-01-1999,18:00,,,,,,,,,,,,,,,,,,,,,
03-01-1999,19:00,,,,,,,,,,,,,,,,,,,,,
03-01-1999,20:00,,,,,,,,,,,,,,,,,,,,,
03-01-1999,21:00,,,,,,,,,,,,,,,,,,,,,
03-01-1999,22:00,,,,,,,,,,,,,,,,,,,,,
03-01-1999,23:00,,,,,,,,,,,,,,,,,,,,,
03-01-1999,24:00,,,,,,,,,,,,,,,,,,,,,
04-01-1999,01:00,,,,,,,,,,,,,,,,,,,,,
04-01-1999,02:00,,,,,,,,,,,,,,,,,,,,,
04-01-1999,03:00,,,,,,,,,,,,,,,,,,,,,
04-01-1999,04:00,,,,,,,,,,,,,,,,,,,,,
04-01-1999,05:00,,,,,,,,,,,,,,,,,,,,,
04-01-1999,06:00,,,,,,,,,,,,,,,,,,,,,
04-01-1999,07:00,,,,,,,,,,,,,,,,,,,,,
04-01-1999,08:00,,,,,,,,,,,,,,,,,,,,,
04-01-1999,09:00,,,,,,,,,,,,,,,,,,,,,
04-01-1999,10:00,,,,,,,,,,,,,,,,,,,,,
04-01-1999,11:00,,,,,,,,,,,,,,,,,,,,,
04-01-1999,12:00,0.1,R,mgm-3,40,R,ugm-3 (GRAV EQ),160,R,ugm-3,94,R,ugm-3,338,R,ugm-3,10,R,ugm-3,27,R,ugm-3
04-01-1999,13:00,0.1,R,mgm-3,36,R,ugm-3 (GRAV EQ),141,R,ugm-3,94,R,ugm-3,309,R,ugm-3,10,R,ugm-3,21,R,ugm-3
04-01-1999,14:00,0.1,R,mgm-3,42,R,ugm-3 (GRAV EQ),116,R,ugm-3,90,R,ugm-3,267,R,ugm-3,14,R,ugm-3,16,R,ugm-3
04-01-1999,15:00,0.2,R,mgm-3,51,R,ugm-3 (GRAV EQ),200,R,ugm-3,107,R,ugm-3,413,R,ugm-3,6,R,ugm-3,43,R,ugm-3
04-01-1999,16:00,0.3,R,mgm-3,56,R,ugm-3 (GRAV EQ),205,R,ugm-3,109,R,ugm-3,422,R,ugm-3,6,R,ugm-3,109,R,ugm-3
04-01-1999,17:00,0.7,R,mgm-3,57,R,ugm-3 (GRAV EQ),214,R,ugm-3,109,R,ugm-3,435,R,ugm-3,4,R,ugm-3,98,R,ugm-3
04-01-1999,18:00,0.9,R,mgm-3,55,R,ugm-3 (GRAV EQ),244,R,ugm-3,113,R,ugm-3,485,R,ugm-3,2,R,ugm-3,90,R,ugm-3
04-01-1999,19:00,0.3,R,mgm-3,48,R,ugm-3 (GRAV EQ),159,R,ugm-3,101,R,ugm-3,344,R,ugm-3,4,R,ugm-3,32,R,ugm-3
04-01-1999,20:00,0.2,R,mgm-3,42,R,ugm-3 (GRAV EQ),110,R,ugm-3,92,R,ugm-3,260,R,ugm-3,8,R,ugm-3,24,R,ugm-3
04-01-1999,21:00,0.2,R,mgm-3,40,R,ugm-3 (GRAV EQ),100,R,ugm-3,86,R,ugm-3,239,R,ugm-3,8,R,ugm-3,35,R,ugm-3
04-01-1999,22:00,0.2,R,mgm-3,36,R,ugm-3 (GRAV EQ),80,R,ugm-3,82,R,ugm-3,204,R,ugm-3,10,R,ugm-3,35,R,ugm-3
04-01-1999,23:00,0.2,R,mgm-3,36,R,ugm-3 (GRAV EQ),69,R,ugm-3,76,R,ugm-3,181,R,ugm-3,12,R,ugm-3,32,R,ugm-3
04-01-1999,24:00,0.2,R,mgm-3,31,R,ugm-3 (GRAV EQ),81,R,ugm-3,82,R,ugm-3,206,R,ugm-3,2,R,ugm-3,27,R,ugm-3
05-01-1999,01:00,0.3,R,mgm-3,30,R,ugm-3 (GRAV EQ),94,R,ugm-3,80,R,ugm-3,223,R,ugm-3,8,R,ugm-3,24,R,ugm-3
05-01-1999,02:00,0.2,R,mgm-3,14,R,ugm-3 (GRAV EQ),81,R,ugm-3,78,R,ugm-3,202,R,ugm-3,12,R,ugm-3,13,R,ugm-3
05-01-1999,03:00,0.1,R,mgm-3,13,R,ugm-3 (GRAV EQ),50,R,ugm-3,67,R,ugm-3,143,R,ugm-3,20,R,ugm-3,11,R,ugm-3
05-01-1999,04:00,0.2,R,mgm-3,18,R,ugm-3 (GRAV EQ),64,R,ugm-3,65,R,ugm-3,162,R,ugm-3,14,R,ugm-3,13,R,ugm-3
05-01-1999,05:00,0.1,R,mgm-3,14,R,ugm-3 (GRAV EQ),59,R,ugm-3,57,R,ugm-3,147,R,ugm-3,18,R,ugm-3,11,R,ugm-3
05-01-1999,06:00,0.1,R,mgm-3,12,R,ugm-3 (GRAV EQ),64,R,ugm-3,61,R,ugm-3,159,R,ugm-3,18,R,ugm-3,13,R,ugm-3
05-01-1999,07:00,0.2,R,mgm-3,20,R,ugm-3 (GRAV EQ),143,R,ugm-3,74,R,ugm-3,292,R,ugm-3,10,R,ugm-3,19,R,ugm-3
05-01-1999,08:00,0.5,R,mgm-3,25,R,ugm-3 (GRAV EQ),140,R,ugm-3,80,R,ugm-3,294,R,ugm-3,8,R,ugm-3,21,R,ugm-3
05-01-1999,09:00,0.6,R,mgm-3,31,R,ugm-3 (GRAV EQ),145,R,ugm-3,84,R,ugm-3,306,R,ugm-3,6,R,ugm-3,24,R,ugm-3
05-01-1999,10:00,0.3,R,mgm-3,36,R,ugm-3 (GRAV EQ),160,R,ugm-3,84,R,ugm-3,329,R,ugm-3,4,R,ugm-3,24,R,ugm-3
05-01-1999,11:00,0.2,R,mgm-3,34,R,ugm-3 (GRAV EQ),161,R,ugm-3,84,R,ugm-3,330,R,ugm-3,6,R,ugm-3,29,R,ugm-3
05-01-1999,12:00,0.3,R,mgm-3,38,R,ugm-3 (GRAV EQ),179,R,ugm-3,84,R,ugm-3,357,R,ugm-3,6,R,ugm-3,29,R,ugm-3
05-01-1999,13:00,0.2,R,mgm-3,35,R,ugm-3 (GRAV EQ),154,R,ugm-3,82,R,ugm-3,317,R,ugm-3,8,R,ugm-3,29,R,ugm-3
05-01-1999,14:00,0.2,R,mgm-3,39,R,ugm-3 (GRAV EQ),145,R,ugm-3,82,R,ugm-3,304,R,ugm-3,10,R,ugm-3,29,R,ugm-3
05-01-1999,15:00,0.3,R,mgm-3,46,R,ugm-3 (GRAV EQ),136,R,ugm-3,80,R,ugm-3,288,R,ugm-3,10,R,ugm-3,29,R,ugm-3
05-01-1999,16:00,0.3,R,mgm-3,51,R,ugm-3 (GRAV EQ),144,R,ugm-3,80,R,ugm-3,300,R,ugm-3,8,R,ugm-3,29,R,ugm-3
05-01-1999,17:00,0.5,R,mgm-3,57,R,ugm-3 (GRAV EQ),125,R,ugm-3,80,R,ugm-3,271,R,ugm-3,12,R,ugm-3,29,R,ugm-3
05-01-1999,18:00,0.5,R,mgm-3,42,R,ugm-3 (GRAV EQ),100,R,ugm-3,74,R,ugm-3,227,R,ugm-3,14,R,ugm-3,27,R,ugm-3
05-01-1999,19:00,0.3,R,mgm-3,27,R,ugm-3 (GRAV EQ),70,R,ugm-3,63,R,ugm-3,170,R,ugm-3,18,R,ugm-3,19,R,ugm-3
05-01-1999,20:00,0.2,R,mgm-3,22,R,ugm-3 (GRAV EQ),49,R,ugm-3,55,R,ugm-3,130,R,ugm-3,24,R,ugm-3,13,R,ugm-3
05-01-1999,21:00,0.2,R,mgm-3,36,R,ugm-3 (GRAV EQ),31,R,ugm-3,48,R,ugm-3,96,R,ugm-3,30,R,ugm-3,13,R,ugm-3
05-01-1999,22:00,0.1,R,mgm-3,53,R,ugm-3 (GRAV EQ),26,R,ugm-3,44,R,ugm-3,84,R,ugm-3,34,R,ugm-3,11,R,ugm-3
05-01-1999,23:00,0.1,R,mgm-3,53,R,ugm-3 (GRAV EQ),21,R,ugm-3,38,R,ugm-3,71,R,ugm-3,36,R,ugm-3,8,R,ugm-3
05-01-1999,24:00,0.1,R,mgm-3,55,R,ugm-3 (GRAV EQ),16,R,ugm-3,34,R,ugm-3,59,R,ugm-3,40,R,ugm-3,5,R,ugm-3
06-01-1999,01:00,0.1,R,mgm-3,49,R,ugm-3 (GRAV EQ),15,R,ugm-3,31,R,ugm-3,53,R,ugm-3,40,R,ugm-3,8,R,ugm-3
06-01-1999,02:00,0.1,R,mgm-3,62,R,ugm-3 (GRAV EQ),11,R,ugm-3,29,R,ugm-3,46,R,ugm-3,42,R,ugm-3,8,R,ugm-3
06-01-1999,03:00,0.1,R,mgm-3,73,R,ugm-3 (GRAV EQ),11,R,ugm-3,31,R,ugm-3,48,R,ugm-3,44,R,ugm-3,11,R,ugm-3
06-01-1999,04:00,0.1,R,mgm-3,51,R,ugm-3 (GRAV EQ),9,R,ugm-3,27,R,ugm-3,40,R,ugm-3,46,R,ugm-3,11,R,ugm-3
06-01-1999,05:00,0.1,R,mgm-3,10,R,ugm-3 (GRAV EQ),20,R,ugm-3,38,R,ugm-3,69,R,ugm-3,40,R,ugm-3,8,R,ugm-3
06-01-1999,06:00,0.1,R,mgm-3,8,R,ugm-3 (GRAV EQ),40,R,ugm-3,53,R,ugm-3,115,R,ugm-3,32,R,ugm-3,8,R,ugm-3
06-01-1999,07:00,0.5,R,mgm-3,17,R,ugm-3 (GRAV EQ),130,R,ugm-3,84,R,ugm-3,283,R,ugm-3,14,R,ugm-3,16,R,ugm-3
06-01-1999,08:00,0.8,R,mgm-3,22,R,ugm-3 (GRAV EQ),126,R,ugm-3,84,R,ugm-3,277,R,ugm-3,12,R,ugm-3,19,R,ugm-3
06-01-1999,09:00,0.8,R,mgm-3,18,R,ugm-3 (GRAV EQ),115,R,ugm-3,78,R,ugm-3,254,R,ugm-3,8,R,ugm-3,19,R,ugm-3
06-01-1999,10:00,0.5,R,mgm-3,29,R,ugm-3 (GRAV EQ),149,R,ugm-3,82,R,ugm-3,309,R,ugm-3,4,R,ugm-3,21,R,ugm-3
06-01-1999,11:00,0.3,R,mgm-3,25,R,ugm-3 (GRAV EQ),126,R,ugm-3,78,R,ugm-3,271,R,ugm-3,6,R,ugm-3,19,R,ugm-3
06-01-1999,12:00,0.3,R,mgm-3,22,R,ugm-3 (GRAV EQ),120,R,ugm-3,74,R,ugm-3,258,R,ugm-3,10,R,ugm-3,16,R,ugm-3
06-01-1999,13:00,0.6,R,mgm-3,33,R,ugm-3 (GRAV EQ),228,R,ugm-3,94,R,ugm-3,441,R,ugm-3,4,R,ugm-3,29,R,ugm-3
06-01-1999,14:00,0.6,R,mgm-3,31,R,ugm-3 (GRAV EQ),135,R,ugm-3,88,R,ugm-3,294,R,ugm-3,6,R,ugm-3,21,R,ugm-3
06-01-1999,15:00,0.7,R,mgm-3,42,R,ugm-3 (GRAV EQ),249,R,ugm-3,99,R,ugm-3,479,R,ugm-3,2,R,ugm-3,29,R,ugm-3
06-01-1999,16:00,1.2,R,mgm-3,64,R,ugm-3 (GRAV EQ),409,R,ugm-3,118,R,ugm-3,743,R,ugm-3,2,R,ugm-3,45,R,ugm-3
06-01-1999,17:00,1.9,R,mgm-3,56,R,ugm-3 (GRAV EQ),359,R,ugm-3,115,R,ugm-3,663,R,ugm-3,2,R,ugm-3,43,R,ugm-3
06-01-1999,18:00,2.0,R,mgm-3,48,R,ugm-3 (GRAV EQ),299,R,ugm-3,105,R,ugm-3,562,R,ugm-3,2,R,ugm-3,43,R,ugm-3
06-01-1999,19:00,1.9,R,mgm-3,43,R,ugm-3 (GRAV EQ),278,R,ugm-3,103,R,ugm-3,527,R,ugm-3,0,R,ugm-3,43,R,ugm-3
06-01-1999,20:00,1.4,R,mgm-3,38,R,ugm-3 (GRAV EQ),263,R,ugm-3,99,R,ugm-3,500,R,ugm-3,0,R,ugm-3,40,R,ugm-3
06-01-1999,21:00,0.9,R,mgm-3,31,R,ugm-3 (GRAV EQ),176,R,ugm-3,90,R,ugm-3,359,R,ugm-3,0,R,ugm-3,32,R,ugm-3
06-01-1999,22:00,0.8,R,mgm-3,33,R,ugm-3 (GRAV EQ),156,R,ugm-3,90,R,ugm-3,329,R,ugm-3,0,R,ugm-3,29,R,ugm-3
06-01-1999,23:00,0.6,R,mgm-3,23,R,ugm-3 (GRAV EQ),164,R,ugm-3,90,R,ugm-3,340,R,ugm-3,0,R,ugm-3,27,R,ugm-3
06-01-1999,24:00,0.5,R,mgm-3,22,R,ugm-3 (GRAV EQ),133,R,ugm-3,84,R,ugm-3,287,R,ugm-3,2,R,ugm-3,21,R,ugm-3
07-01-1999,01:00,0.5,R,mgm-3,20,R,ugm-3 (GRAV EQ),136,R,ugm-3,88,R,ugm-3,296,R,ugm-3,2,R,ugm-3,19,R,ugm-3
07-01-1999,02:00,0.2,R,mgm-3,17,R,ugm-3 (GRAV EQ),58,R,ugm-3,76,R,ugm-3,164,R,ugm-3,8,R,ugm-3,11,R,ugm-3
07-01-1999,03:00,0.2,R,mgm-3,12,R,ugm-3 (GRAV EQ),63,R,ugm-3,76,R,ugm-3,172,R,ugm-3,14,R,ugm-3,13,R,ugm-3
07-01-1999,04:00,0.1,R,mgm-3,9,R,ugm-3 (GRAV EQ),63,R,ugm-3,76,R,ugm-3,172,R,ugm-3,14,R,ugm-3,11,R,ugm-3
07-01-1999,05:00,0.2,R,mgm-3,20,R,ugm-3 (GRAV EQ),108,R,ugm-3,84,R,ugm-3,248,R,ugm-3,4,R,ugm-3,19,R,ugm-3
07-01-1999,06:00,0.2,R,mgm-3,26,R,ugm-3 (GRAV EQ),198,R,ugm-3,92,R,ugm-3,393,R,ugm-3,4,R,ugm-3,27,R,ugm-3
07-01-1999,07:00,0.8,R,mgm-3,55,R,ugm-3 (GRAV EQ),416,R,ugm-3,113,R,ugm-3,749,R,ugm-3,2,R,ugm-3,45,R,ugm-3
07-01-1999,08:00,2.2,R,mgm-3,56,R,ugm-3 (GRAV EQ),454,R,ugm-3,118,R,ugm-3,812,R,ugm-3,2,R,ugm-3,51,R,ugm-3
07-01-1999,09:00,2.4,R,mgm-3,57,R,ugm-3 (GRAV EQ),454,R,ugm-3,120,R,ugm-3,814,R,ugm-3,2,R,ugm-3,56,R,ugm-3
07-01-1999,10:00,2.1,R,mgm-3,56,R,ugm-3 (GRAV EQ),529,R,ugm-3,130,R,ugm-3,938,R,ugm-3,2,R,ugm-3,69,R,ugm-3
07-01-1999,11:00,1.4,R,mgm-3,46,R,ugm-3 (GRAV EQ),480,R,ugm-3,126,R,ugm-3,860,R,ugm-3,2,R,ugm-3,67,R,ugm-3
07-01-1999,12:00,1.2,R,mgm-3,44,R,ugm-3 (GRAV EQ),445,R,ugm-3,122,R,ugm-3,802,R,ugm-3,2,R,ugm-3,64,R,ugm-3
07-01-1999,13:00,1.3,R,mgm-3,40,R,ugm-3 (GRAV EQ),428,R,ugm-3,120,R,ugm-3,774,R,ugm-3,2,R,ugm-3,56,R,ugm-3
07-01-1999,14:00,1.3,R,mgm-3,46,R,ugm-3 (GRAV EQ),424,R,ugm-3,120,R,ugm-3,768,R,ugm-3,2,R,ugm-3,48,R,ugm-3
07-01-1999,15:00,1.5,R,mgm-3,46,R,ugm-3 (GRAV EQ),466,R,ugm-3,132,R,ugm-3,844,R,ugm-3,2,R,ugm-3,51,R,ugm-3
07-01-1999,16:00,,,,46,R,ugm-3 (GRAV EQ),,,,,,,,,,,,,,,
07-01-1999,17:00,1.3,R,mgm-3,26,R,ugm-3 (GRAV EQ),174,R,ugm-3,90,R,ugm-3,355,R,ugm-3,6,R,ugm-3,35,R,ugm-3
07-01-1999,18:00,1.2,R,mgm-3,25,R,ugm-3 (GRAV EQ),183,R,ugm-3,96,R,ugm-3,374,R,ugm-3,8,R,ugm-3,35,R,ugm-3
07-01-1999,19:00,0.8,R,mgm-3,,,,108,R,ugm-3,84,R,ugm-3,248,R,ugm-3,10,R,ugm-3,21,R,ugm-3
07-01-1999,20:00,0.5,R,mgm-3,,,,35,R,ugm-3,55,R,ugm-3,109,R,ugm-3,30,R,ugm-3,13,R,ugm-3
07-01-1999,21:00,0.2,R,mgm-3,,,,15,R,ugm-3,32,R,ugm-3,55,R,ugm-3,44,R,ugm-3,11,R,ugm-3
07-01-1999,22:00,0.2,R,mgm-3,,,,13,R,ugm-3,31,R,ugm-3,50,R,ugm-3,46,R,ugm-3,11,R,ugm-3
07-01-1999,23:00,0.2,R,mgm-3,,,,14,R,ugm-3,31,R,ugm-3,52,R,ugm-3,44,R,ugm-3,11,R,ugm-3
07-01-1999,24:00,0.2,R,mgm-3,,,,10,R,ugm-3,27,R,ugm-3,42,R,ugm-3,46,R,ugm-3,8,R,ugm-3
08-01-1999,01:00,0.1,R,mgm-3,16,R,ugm-3 (GRAV EQ),6,R,ugm-3,27,R,ugm-3,36,R,ugm-3,46,R,ugm-3,5,R,ugm-3
08-01-1999,02:00,0.1,R,mgm-3,9,R,ugm-3 (GRAV EQ),,,,,,,,,,62,R,ugm-3,0,R,ugm-3
08-01-1999,03:00,0.1,R,mgm-3,20,R,ugm-3 (GRAV EQ),11,R,ugm-3,36,R,ugm-3,53,R,ugm-3,38,R,ugm-3,5,R,ugm-3
08-01-1999,04:00,0.1,R,mgm-3,22,R,ugm-3 (GRAV EQ),,,,,,,,,,42,R,ugm-3,5,R,ugm-3
08-01-1999,05:00,0.1,R,mgm-3,25,R,ugm-3 (GRAV EQ),16,R,ugm-3,40,R,ugm-3,65,R,ugm-3,32,R,ugm-3,8,R,ugm-3
08-01-1999,06:00,0.3,R,mgm-3,31,R,ugm-3 (GRAV EQ),154,R,ugm-3,76,R,ugm-3,311,R,ugm-3,8,R,ugm-3,16,R,ugm-3
08-01-1999,07:00,0.7,R,mgm-3,48,R,ugm-3 (GRAV EQ),378,R,ugm-3,105,R,ugm-3,682,R,ugm-3,2,R,ugm-3,35,R,ugm-3
08-01-1999,08:00,2.0,R,mgm-3,51,R,ugm-3 (GRAV EQ),374,R,ugm-3,113,R,ugm-3,684,R,ugm-3,4,R,ugm-3,37,R,ugm-3
08-01-1999,09:00,2.4,R,mgm-3,61,R,ugm-3 (GRAV EQ),423,R,ugm-3,124,R,ugm-3,770,R,ugm-3,2,R,ugm-3,45,R,ugm-3
08-01-1999,10:00,2.0,R,mgm-3,64,R,ugm-3 (GRAV EQ),466,R,ugm-3,128,R,ugm-3,840,R,ugm-3,2,R,ugm-3,51,R,ugm-3
08-01-1999,11:00,2.0,R,mgm-3,49,R,ugm-3 (GRAV EQ),208,R,ugm-3,105,R,ugm-3,422,R,ugm-3,4,R,ugm-3,45,R,ugm-3
08-01-1999,12:00,1.4,R,mgm-3,34,R,ugm-3 (GRAV EQ),101,R,ugm-3,90,R,ugm-3,244,R,ugm-3,10,R,ugm-3,35,R,ugm-3
08-01-1999,13:00,1.0,R,mgm-3,29,R,ugm-3 (GRAV EQ),93,R,ugm-3,84,R,ugm-3,225,R,ugm-3,10,R,ugm-3,29,R,ugm-3
08-01-1999,14:00,1.5,R,mgm-3,34,R,ugm-3 (GRAV EQ),138,R,ugm-3,88,R,ugm-3,298,R,ugm-3,4,R,ugm-3,32,R,ugm-3
08-01-1999,15:00,1.6,R,mgm-3,31,R,ugm-3 (GRAV EQ),151,R,ugm-3,86,R,ugm-3,317,R,ugm-3,4,R,ugm-3,27,R,ugm-3
08-01-1999,16:00,1.7,R,mgm-3,30,R,ugm-3 (GRAV EQ),134,R,ugm-3,82,R,ugm-3,287,R,ugm-3,6,R,ugm-3,27,R,ugm-3
08-01-1999,17:00,1.9,R,mgm-3,21,R,ugm-3 (GRAV EQ),121,R,ugm-3,84,R,ugm-3,269,R,ugm-3,8,R,ugm-3,21,R,ugm-3
08-01-1999,18:00,2.4,R,mgm-3,29,R,ugm-3 (GRAV EQ),160,R,ugm-3,92,R,ugm-3,336,R,ugm-3,4,R,ugm-3,29,R,ugm-3
08-01-1999,19:00,2.1,R,mgm-3,30,R,ugm-3 (GRAV EQ),133,R,ugm-3,88,R,ugm-3,290,R,ugm-3,4,R,ugm-3,27,R,ugm-3
08-01-1999,20:00,1.4,R,mgm-3,22,R,ugm-3 (GRAV EQ),85,R,ugm-3,78,R,ugm-3,208,R,ugm-3,6,R,ugm-3,19,R,ugm-3
08-01-1999,21:00,1.4,R,mgm-3,21,R,ugm-3 (GRAV EQ),69,R,ugm-3,76,R,ugm-3,181,R,ugm-3,10,R,ugm-3,24,R,ugm-3
08-01-1999,22:00,1.0,R,mgm-3,18,R,ugm-3 (GRAV EQ),53,R,ugm-3,71,R,ugm-3,151,R,ugm-3,12,R,ugm-3,27,R,ugm-3
08-01-1999,23:00,0.6,R,mgm-3,12,R,ugm-3 (GRAV EQ),30,R,ugm-3,59,R,ugm-3,105,R,ugm-3,18,R,ugm-3,16,R,ugm-3
08-01-1999,24:00,0.5,R,mgm-3,12,R,ugm-3 (GRAV EQ),28,R,ugm-3,57,R,ugm-3,99,R,ugm-3,18,R,ugm-3,19,R,ugm-3
09-01-1999,01:00,0.5,R,mgm-3,13,R,ugm-3 (GRAV EQ),41,R,ugm-3,61,R,ugm-3,124,R,ugm-3,12,R,ugm-3,16,R,ugm-3
09-01-1999,02:00,0.2,R,mgm-3,12,R,ugm-3 (GRAV EQ),19,R,ugm-3,48,R,ugm-3,76,R,ugm-3,20,R,ugm-3,11,R,ugm-3
09-01-1999,03:00,0.2,R,mgm-3,12,R,ugm-3 (GRAV EQ),96,R,ugm-3,65,R,ugm-3,212,R,ugm-3,14,R,ugm-3,13,R,ugm-3
09-01-1999,04:00,0.2,R,mgm-3,10,R,ugm-3 (GRAV EQ),23,R,ugm-3,52,R,ugm-3,86,R,ugm-3,16,R,ugm-3,16,R,ugm-3
09-01-1999,05:00,0.1,R,mgm-3,9,R,ugm-3 (GRAV EQ),14,R,ugm-3,40,R,ugm-3,61,R,ugm-3,26,R,ugm-3,16,R,ugm-3
09-01-1999,06:00,0.3,R,mgm-3,12,R,ugm-3 (GRAV EQ),88,R,ugm-3,69,R,ugm-3,202,R,ugm-3,8,R,ugm-3,19,R,ugm-3
09-01-1999,07:00,0.6,R,mgm-3,17,R,ugm-3 (GRAV EQ),96,R,ugm-3,86,R,ugm-3,233,R,ugm-3,4,R,ugm-3,27,R,ugm-3
09-01-1999,08:00,0.6,R,mgm-3,20,R,ugm-3 (GRAV EQ),75,R,ugm-3,76,R,ugm-3,191,R,ugm-3,8,R,ugm-3,32,R,ugm-3
09-01-1999,09:00,1.6,R,mgm-3,29,R,ugm-3 (GRAV EQ),143,R,ugm-3,90,R,ugm-3,308,R,ugm-3,4,R,ugm-3,35,R,ugm-3
09-01-1999,10:00,2.1,R,mgm-3,33,R,ugm-3 (GRAV EQ),210,R,ugm-3,101,R,ugm-3,422,R,ugm-3,4,R,ugm-3,43,R,ugm-3
09-01-1999,11:00,1.6,R,mgm-3,34,R,ugm-3 (GRAV EQ),219,R,ugm-3,92,R,ugm-3,426,R,ugm-3,10,R,ugm-3,43,R,ugm-3
09-01-1999,12:00,0.9,R,mgm-3,12,R,ugm-3 (GRAV EQ),53,R,ugm-3,61,R,ugm-3,141,R,ugm-3,22,R,ugm-3,21,R,ugm-3
09-01-1999,13:00,1.0,R,mgm-3,18,R,ugm-3 (GRAV EQ),81,R,ugm-3,71,R,ugm-3,195,R,ugm-3,20,R,ugm-3,27,R,ugm-3
09-01-1999,14:00,1.3,R,mgm-3,33,R,ugm-3 (GRAV EQ),80,R,ugm-3,73,R,ugm-3,195,R,ugm-3,20,R,ugm-3,29,R,ugm-3
09-01-1999,15:00,1.2,R,mgm-3,59,R,ugm-3 (GRAV EQ),83,R,ugm-3,74,R,ugm-3,201,R,ugm-3,20,R,ugm-3,29,R,ugm-3
09-01-1999,16:00,1.6,R,mgm-3,44,R,ugm-3 (GRAV EQ),104,R,ugm-3,84,R,ugm-3,243,R,ugm-3,10,R,ugm-3,35,R,ugm-3
09-01-1999,17:00,2.1,R,mgm-3,35,R,ugm-3 (GRAV EQ),124,R,ugm-3,90,R,ugm-3,279,R,ugm-3,4,R,ugm-3,37,R,ugm-3
09-01-1999,18:00,1.9,R,mgm-3,34,R,ugm-3 (GRAV EQ),128,R,ugm-3,92,R,ugm-3,287,R,ugm-3,4,R,ugm-3,37,R,ugm-3
09-01-1999,19:00,2.1,R,mgm-3,35,R,ugm-3 (GRAV EQ),218,R,ugm-3,90,R,ugm-3,422,R,ugm-3,2,R,ugm-3,45,R,ugm-3
09-01-1999,20:00,2.4,R,mgm-3,36,R,ugm-3 (GRAV EQ),269,R,ugm-3,97,R,ugm-3,508,R,ugm-3,4,R,ugm-3,48,R,ugm-3
09-01-1999,21:00,2.3,R,mgm-3,31,R,ugm-3 (GRAV EQ),166,R,ugm-3,90,R,ugm-3,344,R,ugm-3,4,R,ugm-3,37,R,ugm-3
09-01-1999,22:00,2.0,R,mgm-3,23,R,ugm-3 (GRAV EQ),196,R,ugm-3,90,R,ugm-3,390,R,ugm-3,2,R,ugm-3,45,R,ugm-3
09-01-1999,23:00,2.4,R,mgm-3,31,R,ugm-3 (GRAV EQ),250,R,ugm-3,97,R,ugm-3,479,R,ugm-3,2,R,ugm-3,40,R,ugm-3
09-01-1999,24:00,2.0,R,mgm-3,21,R,ugm-3 (GRAV EQ),221,R,ugm-3,92,R,ugm-3,430,R,ugm-3,2,R,ugm-3,35,R,ugm-3
10-01-1999,01:00,2.7,R,mgm-3,35,R,ugm-3 (GRAV EQ),404,R,ugm-3,103,R,ugm-3,720,R,ugm-3,4,R,ugm-3,51,R,ugm-3
10-01-1999,02:00,2.3,R,mgm-3,30,R,ugm-3 (GRAV EQ),291,R,ugm-3,96,R,ugm-3,541,R,ugm-3,2,R,ugm-3,37,R,ugm-3
10-01-1999,03:00,2.1,R,mgm-3,27,R,ugm-3 (GRAV EQ),245,R,ugm-3,88,R,ugm-3,462,R,ugm-3,2,R,ugm-3,32,R,ugm-3
10-01-1999,04:00,1.6,R,mgm-3,23,R,ugm-3 (GRAV EQ),234,R,ugm-3,90,R,ugm-3,447,R,ugm-3,2,R,ugm-3,35,R,ugm-3
10-01-1999,05:00,0.5,R,mgm-3,10,R,ugm-3 (GRAV EQ),78,R,ugm-3,82,R,ugm-3,201,R,ugm-3,2,R,ugm-3,19,R,ugm-3
10-01-1999,06:00,0.7,R,mgm-3,23,R,ugm-3 (GRAV EQ),214,R,ugm-3,94,R,ugm-3,420,R,ugm-3,2,R,ugm-3,29,R,ugm-3
10-01-1999,07:00,1.3,R,mgm-3,29,R,ugm-3 (GRAV EQ),269,R,ugm-3,99,R,ugm-3,510,R,ugm-3,2,R,ugm-3,40,R,ugm-3
10-01-1999,08:00,1.5,R,mgm-3,23,R,ugm-3 (GRAV EQ),214,R,ugm-3,99,R,ugm-3,426,R,ugm-3,2,R,ugm-3,29,R,ugm-3
10-01-1999,09:00,2.2,R,mgm-3,26,R,ugm-3 (GRAV EQ),215,R,ugm-3,101,R,ugm-3,430,R,ugm-3,4,R,ugm-3,35,R,ugm-3
10-01-1999,10:00,3.0,R,mgm-3,40,R,ugm-3 (GRAV EQ),265,R,ugm-3,105,R,ugm-3,510,R,ugm-3,4,R,ugm-3,56,R,ugm-3
10-01-1999,11:00,2.7,R,mgm-3,36,R,ugm-3 (GRAV EQ),271,R,ugm-3,103,R,ugm-3,518,R,ugm-3,4,R,ugm-3,96,R,ugm-3
10-01-1999,12:00,1.5,R,mgm-3,18,R,ugm-3 (GRAV EQ),128,R,ugm-3,84,R,ugm-3,279,R,ugm-3,10,R,ugm-3,56,R,ugm-3
10-01-1999,13:00,1.4,R,mgm-3,18,R,ugm-3 (GRAV EQ),69,R,ugm-3,82,R,ugm-3,187,R,ugm-3,14,R,ugm-3,37,R,ugm-3
10-01-1999,14:00,1.5,R,mgm-3,14,R,ugm-3 (GRAV EQ),78,R,ugm-3,80,R,ugm-3,199,R,ugm-3,16,R,ugm-3,29,R,ugm-3
10-01-1999,15:00,1.9,R,mgm-3,23,R,ugm-3 (GRAV EQ),98,R,ugm-3,88,R,ugm-3,237,R,ugm-3,12,R,ugm-3,27,R,ugm-3
10-01-1999,16:00,2.4,R,mgm-3,31,R,ugm-3 (GRAV EQ),158,R,ugm-3,101,R,ugm-3,342,R,ugm-3,6,R,ugm-3,37,R,ugm-3
10-01-1999,17:00,2.8,R,mgm-3,34,R,ugm-3 (GRAV EQ),181,R,ugm-3,107,R,ugm-3,384,R,ugm-3,4,R,ugm-3,59,R,ugm-3
10-01-1999,18:00,2.6,R,mgm-3,39,R,ugm-3 (GRAV EQ),185,R,ugm-3,105,R,ugm-3,388,R,ugm-3,4,R,ugm-3,69,R,ugm-3
10-01-1999,19:00,3.1,R,mgm-3,44,R,ugm-3 (GRAV EQ),260,R,ugm-3,113,R,ugm-3,510,R,ugm-3,4,R,ugm-3,69,R,ugm-3
10-01-1999,20:00,3.7,R,mgm-3,49,R,ugm-3 (GRAV EQ),378,R,ugm-3,126,R,ugm-3,703,R,ugm-3,4,R,ugm-3,67,R,ugm-3
10-01-1999,21:00,4.2,R,mgm-3,57,R,ugm-3 (GRAV EQ),595,R,ugm-3,147,R,ugm-3,1056,R,ugm-3,4,R,ugm-3,80,R,ugm-3
10-01-1999,22:00,3.6,R,mgm-3,48,R,ugm-3 (GRAV EQ),305,R,ugm-3,115,R,ugm-3,581,R,ugm-3,4,R,ugm-3,69,R,ugm-3
10-01-1999,23:00,3.4,R,mgm-3,44,R,ugm-3 (GRAV EQ),316,R,ugm-3,118,R,ugm-3,602,R,ugm-3,4,R,ugm-3,56,R,ugm-3
10-01-1999,24:00,3.0,R,mgm-3,44,R,ugm-3 (GRAV EQ),294,R,ugm-3,107,R,ugm-3,556,R,ugm-3,4,R,ugm-3,59,R,ugm-3
11-01-1999,01:00,2.0,R,mgm-3,33,R,ugm-3 (GRAV EQ),136,R,ugm-3,86,R,ugm-3,294,R,ugm-3,2,R,ugm-3,43,R,ugm-3
11-01-1999,02:00,2.1,R,mgm-3,36,R,ugm-3 (GRAV EQ),244,R,ugm-3,96,R,ugm-3,468,R,ugm-3,2,R,ugm-3,35,R,ugm-3
11-01-1999,03:00,1.3,R,mgm-3,23,R,ugm-3 (GRAV EQ),158,R,ugm-3,90,R,ugm-3,330,R,ugm-3,2,R,ugm-3,37,R,ugm-3
11-01-1999,04:00,0.7,R,mgm-3,20,R,ugm-3 (GRAV EQ),259,R,ugm-3,99,R,ugm-3,495,R,ugm-3,2,R,ugm-3,48,R,ugm-3
11-01-1999,05:00,0.3,R,mgm-3,13,R,ugm-3 (GRAV EQ),34,R,ugm-3,76,R,ugm-3,128,R,ugm-3,8,R,ugm-3,27,R,ugm-3
11-01-1999,06:00,0.3,R,mgm-3,12,R,ugm-3 (GRAV EQ),28,R,ugm-3,67,R,ugm-3,109,R,ugm-3,12,R,ugm-3,21,R,ugm-3
11-01-1999,07:00,0.8,R,mgm-3,13,R,ugm-3 (GRAV EQ),70,R,ugm-3,78,R,ugm-3,185,R,ugm-3,10,R,ugm-3,16,R,ugm-3